Weather History for Moorhead, MN

Change the Weather History Date:

Monday, October 8, 2012

  Actual Average (KFAR) Record (KFAR)
Temperature  
Mean Temperature 44 °F 49 °F  
Max Temperature 53 °F 60 °F 86 °F (2003)
Min Temperature 35 °F 38 °F 16 °F (1917)
Degree Days  
Heating Degree Days 21 16  
Month to date heating degree days 116  
Since 1 July heating degree days 386  
Cooling Degree Days 0 0  
Month to date cooling degree days 0  
Year to date cooling degree days 548  
Moisture  
Dew Point 37 °F    
Average Humidity 73    
Maximum Humidity 88    
Minimum Humidity 62    
Precipitation  
Precipitation 0.02 in 0.07 in 0.98 in (1997)
Month to date precipitation 0.65  
Year to date precipitation 19.28  
Snow  
Snow 0.00 in 0.00 in 0.70 in (1927)
Month to date snowfall 0.0  
Since 1 July snowfall 0.0  
Since 1 September snowfall 0.0  
Snow Depth -    
Sea Level Pressure  
Sea Level Pressure 29.63 in    
Wind  
Wind Speed 9 mph (SW)    
Max Wind Speed 23 mph    
Max Gust Speed 33 mph    
Visibility 10 miles    
Events Rain    
T = Trace of Precipitation, MM = Missing Value Source: NWS Daily Summary

Daily Weather History Graph

Daily Weather History Graph

Search for Another Location

Airport:

Trip Planner

Search our weather history database for the weather conditions in past years. The results will help you decide how hot, cold, wet, or windy it might be!

Date:

Astronomy

Oct. 08, 2012 Rise Set
Actual Time 7:35 AM CDT 6:51 PM CDT
Civil Twilight 7:05 AM CDT 7:22 PM CDT
Nautical Twilight 6:30 AM CDT 7:57 PM CDT
Astronomical Twilight 5:54 AM CDT 8:32 PM CDT
Moon No Moon Rise 3:04 PM CDT (10/8)
Length of Visible Light 12h 16m
Length of Day
11h 16m
Last Quarter, 46% of the Moon is Illuminated
Oct 8
Last Quarter
Oct 15
New
Oct 21
First Quarter
Oct 29
Full
Nov 6
Last Quarter

Hourly Weather History & Observations

Time (CDT) Temp. Windchill Dew Point Humidity Pressure Visibility Wind Dir Wind Speed Gust Speed Precip Events Conditions
12:15 AM 39.2 °F 35.9 °F 30.2 °F 70% 29.75 in 10.0 mi SSE 4.6 mph - N/A   Scattered Clouds
12:35 AM 37.4 °F 32.8 °F 30.2 °F 75% 29.74 in 10.0 mi SSE 5.8 mph - N/A   Scattered Clouds
12:55 AM 37.4 °F 33.8 °F 28.4 °F 70% 29.74 in 10.0 mi SSE 4.6 mph - N/A   Scattered Clouds
1:15 AM 37.4 °F 32.8 °F 28.4 °F 70% 29.74 in 10.0 mi SSE 5.8 mph - N/A   Scattered Clouds
1:35 AM 37.4 °F 32.8 °F 30.2 °F 75% 29.73 in 10.0 mi SSE 5.8 mph - N/A   Scattered Clouds
1:55 AM 37.4 °F 32.1 °F 28.4 °F 70% 29.73 in 10.0 mi SSE 6.9 mph - N/A   Clear
2:15 AM 35.6 °F 30.7 °F 28.4 °F 75% 29.73 in 10.0 mi SSE 5.8 mph - N/A   Scattered Clouds
2:35 AM 37.4 °F 32.8 °F 30.2 °F 75% 29.72 in 10.0 mi SSE 5.8 mph - N/A   Mostly Cloudy
2:55 AM 37.4 °F 32.1 °F 30.2 °F 75% 29.71 in 10.0 mi SSE 6.9 mph - N/A   Overcast
3:15 AM 37.4 °F 31.4 °F 28.4 °F 70% 29.70 in 10.0 mi SSE 8.1 mph - N/A   Mostly Cloudy
3:35 AM 37.4 °F 31.4 °F 30.2 °F 75% 29.68 in 10.0 mi SSE 8.1 mph - N/A   Mostly Cloudy
3:54 AM 39.2 °F 34.2 °F 30.2 °F 70% 29.67 in 10.0 mi SSE 6.9 mph - N/A   Overcast
4:15 AM 39.2 °F 33.6 °F 28.4 °F 65% 29.66 in 10.0 mi SSE 8.1 mph - N/A   Overcast
4:35 AM 39.2 °F 33.0 °F 28.4 °F 65% 29.65 in 10.0 mi South 9.2 mph - N/A   Overcast
4:54 AM 39.2 °F 35.0 °F 30.2 °F 70% 29.65 in 10.0 mi South 5.8 mph - N/A   Mostly Cloudy
5:15 AM 39.2 °F 35.0 °F 30.2 °F 70% 29.65 in 10.0 mi South 5.8 mph - N/A   Scattered Clouds
5:35 AM 39.2 °F 35.0 °F 32.0 °F 75% 29.64 in 10.0 mi South 5.8 mph - N/A   Overcast
5:54 AM 41.0 °F 37.1 °F 33.8 °F 76% 29.63 in 10.0 mi South 5.8 mph - N/A   Overcast
6:15 AM 41.0 °F 38.0 °F 33.8 °F 76% 29.63 in 10.0 mi South 4.6 mph - N/A   Overcast
6:34 AM 41.0 °F 39.0 °F 35.6 °F 81% 29.63 in 10.0 mi South 3.5 mph - N/A   Scattered Clouds
6:55 AM 42.8 °F 38.6 °F 35.6 °F 76% 29.62 in 10.0 mi South 6.9 mph - N/A   Overcast
7:15 AM 42.8 °F 37.5 °F 35.6 °F 76% 29.61 in 10.0 mi South 9.2 mph - N/A   Light Drizzle
7:35 AM 42.8 °F 37.5 °F 35.6 °F 76% 29.60 in 10.0 mi South 9.2 mph - N/A   Overcast
7:55 AM 42.8 °F 37.0 °F 35.6 °F 76% 29.59 in 10.0 mi South 10.4 mph - N/A   Overcast
8:15 AM 44.6 °F 38.8 °F 35.6 °F 71% 29.58 in 10.0 mi South 11.5 mph - N/A   Overcast
8:34 AM 44.6 °F 39.7 °F 35.6 °F 71% 29.57 in 10.0 mi SSE 9.2 mph - N/A   Mostly Cloudy
8:55 AM 44.6 °F 39.2 °F 35.6 °F 71% 29.55 in 7.0 mi SSE 10.4 mph - N/A   Mostly Cloudy
9:15 AM 44.6 °F 38.4 °F 35.6 °F 71% 29.53 in 7.0 mi SSE 12.7 mph - N/A   Mostly Cloudy
9:34 AM 46.4 °F 40.1 °F 35.6 °F 66% 29.52 in 10.0 mi SSE 15.0 mph - N/A   Mostly Cloudy
9:55 AM 48.2 °F - 35.6 °F 62% 29.52 in 10.0 mi South 9.2 mph 18.4 mph N/A   Scattered Clouds
10:15 AM 48.2 °F - 37.4 °F 66% 29.52 in 10.0 mi SSW 13.8 mph 19.6 mph N/A   Light Drizzle
10:35 AM 48.2 °F - 37.4 °F 66% 29.52 in 10.0 mi South 11.5 mph 19.6 mph N/A   Mostly Cloudy
10:55 AM 48.2 °F - 37.4 °F 66% 29.52 in 10.0 mi SSW 11.5 mph 17.3 mph N/A   Scattered Clouds
11:14 AM 48.2 °F - 39.2 °F 71% 29.52 in 10.0 mi SW 11.5 mph - N/A   Drizzle
11:35 AM 48.2 °F - 42.8 °F 82% 29.52 in 10.0 mi SW 8.1 mph - N/A Rain Light Rain
11:55 AM 48.2 °F - 42.8 °F 82% 29.52 in 10.0 mi West 10.4 mph - 0.02 in Rain Light Rain
12:14 PM 50.0 °F - 44.6 °F 82% 29.52 in 10.0 mi West 10.4 mph - N/A   Mostly Cloudy
12:55 PM 51.8 °F - 48.2 °F 88% 29.53 in 10.0 mi WNW 17.3 mph - N/A   Scattered Clouds
1:15 PM 51.8 °F - 46.4 °F 82% 29.53 in 10.0 mi WNW 19.6 mph 25.3 mph N/A   Overcast
1:35 PM 51.8 °F - 46.4 °F 82% 29.54 in 10.0 mi WNW 23.0 mph 33.4 mph N/A   Overcast
1:54 PM 50.0 °F - 44.6 °F 82% 29.55 in 10.0 mi WNW 21.9 mph - N/A   Overcast
2:15 PM 50.0 °F - 44.6 °F 82% 29.56 in 10.0 mi NW 21.9 mph 29.9 mph N/A   Overcast
2:35 PM 50.0 °F - 44.6 °F 82% 29.57 in 10.0 mi NW 19.6 mph 25.3 mph N/A   Overcast
2:55 PM 50.0 °F - 44.6 °F 82% 29.58 in 10.0 mi NW 20.7 mph 29.9 mph N/A   Overcast
3:15 PM 50.0 °F - 44.6 °F 82% 29.59 in 10.0 mi NW 19.6 mph 24.2 mph N/A   Overcast
3:34 PM 51.8 °F - 42.8 °F 71% 29.60 in 10.0 mi NW 19.6 mph 25.3 mph N/A   Overcast
3:55 PM 51.8 °F - 42.8 °F 71% 29.61 in 10.0 mi NNW 18.4 mph 28.8 mph N/A   Overcast
4:15 PM 51.8 °F - 42.8 °F 71% 29.62 in 10.0 mi NNW 19.6 mph 25.3 mph N/A   Overcast
4:34 PM 51.8 °F - 42.8 °F 71% 29.62 in 10.0 mi NW 15.0 mph - N/A   Mostly Cloudy
4:55 PM 51.8 °F - 42.8 °F 71% 29.63 in 10.0 mi NW 15.0 mph - N/A   Mostly Cloudy
5:15 PM 53.6 °F - 42.8 °F 67% 29.62 in 10.0 mi NW 13.8 mph - N/A   Scattered Clouds
5:34 PM 51.8 °F - 41.0 °F 67% 29.63 in 10.0 mi NW 10.4 mph - N/A   Clear
5:55 PM 51.8 °F - 42.8 °F 71% 29.63 in 10.0 mi NW 6.9 mph - N/A   Mostly Cloudy
6:15 PM 51.8 °F - 42.8 °F 71% 29.64 in 10.0 mi NW 5.8 mph - N/A   Mostly Cloudy
6:34 PM 50.0 °F - 41.0 °F 71% 29.64 in 10.0 mi West 3.5 mph - N/A   Mostly Cloudy
6:55 PM 51.8 °F - 41.0 °F 67% 29.64 in 10.0 mi WNW 8.1 mph - N/A   Overcast
7:35 PM 48.2 °F - 39.2 °F 71% 29.66 in 10.0 mi NW 8.1 mph - N/A   Clear
7:55 PM 46.4 °F 43.5 °F 39.2 °F 76% 29.67 in 10.0 mi NW 5.8 mph - N/A   Clear
8:15 PM 46.4 °F 42.9 °F 39.2 °F 76% 29.67 in 10.0 mi WNW 6.9 mph - N/A   Scattered Clouds
8:35 PM 46.4 °F 42.4 °F 37.4 °F 71% 29.67 in 10.0 mi WNW 8.1 mph - N/A   Mostly Cloudy
8:55 PM 44.6 °F 40.7 °F 37.4 °F 76% 29.67 in 10.0 mi West 6.9 mph - N/A   Scattered Clouds
9:15 PM 44.6 °F 39.7 °F 35.6 °F 71% 29.67 in 10.0 mi WNW 9.2 mph - N/A   Clear
9:35 PM 44.6 °F 40.7 °F 35.6 °F 71% 29.68 in 10.0 mi West 6.9 mph - N/A   Clear
9:55 PM 44.6 °F 39.7 °F 35.6 °F 71% 29.68 in 10.0 mi WNW 9.2 mph - N/A   Clear
10:14 PM 44.6 °F 41.4 °F 35.6 °F 71% 29.69 in 10.0 mi West 5.8 mph - N/A   Clear
10:55 PM 44.6 °F 39.7 °F 35.6 °F 71% 29.69 in 10.0 mi West 9.2 mph - N/A   Clear
11:15 PM 44.6 °F 39.7 °F 35.6 °F 71% 29.69 in 10.0 mi WNW 9.2 mph - N/A   Clear
11:35 PM 44.6 °F 38.8 °F 35.6 °F 71% 29.69 in 10.0 mi WNW 11.5 mph 16.1 mph N/A   Clear
11:54 PM 44.6 °F 39.7 °F 35.6 °F 71% 29.69 in 10.0 mi West 9.2 mph - N/A   Clear